Regional Weather Roundup
Issued by NWS

Home | Current Version | Previous Version | Text Only | Print | Product List | Glossary Off
Versions: 1 2 3 4 5 6 7 8 9 10 11 12 13 14 15 16 17 18 19 20 21 22 23 24 25 26 27 28 29 30 31 32 33 34 35 36 37 38 39 40 41 42 43 44 45 46 47 48 49 50

000
ASUS43 KLSX 191707
RWRMO

WEATHER SUMMARY FOR MISSOURI
NATIONAL WEATHER SERVICE SPRINGFIELD MO
1100 AM CST FRI JAN 19 2018

NOTE: "FAIR" INDICATES FEW OR NO CLOUDS BELOW 12,000 FEET WITH NO
       SIGNIFICANT WEATHER AND/OR OBSTRUCTIONS TO VISIBILITY.
       CURRENT SKY AND/OR WEATHER CONDITIONS ARE NOT AVAILABLE FOR
       CHILLICOTHE AND FARMINGTON.

MOZ001>031-035>038-043-044-053-054-191800-
...NORTHERN AND WESTERN MISSOURI...

CITY           SKY/WX    TMP DP  RH WIND       PRES   REMARKS
KANSAS CTY INT CLOUDY    39  21  48 SW15      29.92S
KANSAS C DTWN  CLOUDY    42  21  43 SW15      29.94S
LEE`S SUMMIT   CLOUDY    40  22  48 SW18G25   29.95S
ST JOSEPH      CLOUDY    39  25  57 S14       29.90F
CHILLICOTHE      N/A     40  22  48 S13       29.93F
KIRKSVILLE     CLOUDY    38  24  57 SW13      29.92R WCI  30

$$
MOZ066>068-077>081-088>096-101>105-191800-
...SOUTHWEST MISSOURI...

CITY           SKY/WX    TMP DP  RH WIND       PRES   REMARKS
SPRINGFIELD    SUNNY     41  23  48 S13       30.06F
JOPLIN         CLOUDY    41  25  53 S14       30.06F
BRANSON        MOSUNNY   46  23  39 SW12G18   30.11F

$$
MOZ032>034-039>042-045>050-055>058-069>072-191800-
...CENTRAL MISSOURI...

CITY           SKY/WX    TMP DP  RH WIND       PRES   REMARKS
COLUMBIA       CLOUDY    45  20  36 S17G25    30.01F
JEFFERSON CITY CLOUDY    44  19  36 SW8       30.04F
ROLLA          SUNNY     44  19  36 S16       30.06F
SEDALIA        CLOUDY    43  24  47 SW20G26   30.00F
WHITEMAN AFB   MOSUNNY   42  21  44 SW17      29.94F
WARRENSBURG    CLOUDY    39  23  52 S16       29.99S
OSAGE BEACH    CLOUDY    45  22  40 SW13G22   30.06F

$$
MOZ051-052-059>065-191800-
...EAST CENTRAL MISSOURI...

CITY           SKY/WX    TMP DP  RH WIND       PRES   REMARKS
ST LOUIS INTL  MOSUNNY   45  16  31 SW13      30.06F
SPIRIT OF STL  SUNNY     47  17  30 SW10G21   30.05F
ST CHARLES     SUNNY     44  17  33 SW17      30.05F

$$
MOZ072>076-082>087-097>100-106>115-191800-
...SOUTH CENTRAL AND SOUTHEAST MISSOURI...

CITY           SKY/WX    TMP DP  RH WIND       PRES   REMARKS
CAPE GIRARDEAU FAIR      31  20  63 S9        30.22F WCI  23
FARMINGTON     SUNNY     42  17  36 S13       30.12F
POPLAR BLUFF   FAIR      35  23  61 S10       30.22S WCI  27
WEST PLAINS    SUNNY     43  17  35 SW9       30.14S

$$



USA.gov is the U.S. government's official web portal to all federal, state and local government web resources and services.